GEFSMA_con_probscp_288.txt.gz
Probability
6 6 5 5 4 3 5 8 10 10 9 9 8 8 9 9 7 5 6 9 11 11 10 8 7 5 5 6 8 10 12 9 5 3 3 2 1 0 1 0 0 0 0
7 6 5 5 4 4 6 8 10 10 10 10 9 9 9 9 7 5 7 10 12 12 11 9 8 7 7 8 10 12 13 10 8 6 5 4 1 1 1 1 1 1 1
7 7 6 5 5 6 6 7 8 8 9 9 9 9 8 9 9 9 10 12 13 14 14 13 13 13 11 10 11 12 12 11 10 10 9 6 4 3 2 1 2 3 3
8 8 7 8 9 8 6 5 6 6 7 6 7 7 7 9 11 12 12 12 14 15 15 17 20 19 16 14 13 13 12 11 11 12 11 9 8 7 4 3 3 4 4
9 9 10 11 11 10 7 5 7 9 8 6 4 5 7 10 12 13 12 13 15 17 16 18 21 21 19 18 17 16 15 13 12 13 13 13 12 10 6 4 3 4 4
8 9 11 12 10 8 7 6 9 11 9 6 3 3 5 8 12 14 14 15 17 18 17 18 20 20 20 20 20 19 18 16 15 14 14 15 14 11 7 6 5 3 3
6 7 9 10 9 7 7 7 10 10 6 4 3 3 4 7 12 15 17 19 18 16 15 17 20 21 20 19 19 18 18 18 16 13 12 14 15 12 8 8 7 4 2
5 5 6 7 9 9 9 10 11 10 6 4 4 4 4 6 10 13 19 21 20 17 14 13 18 23 22 19 16 16 17 18 16 12 11 13 13 11 9 10 10 7 4
6 5 7 9 10 11 12 12 12 11 9 7 7 7 7 8 9 13 17 18 19 19 15 13 17 22 23 20 17 16 17 17 15 13 13 13 12 10 9 10 10 8 7
10 9 11 13 14 14 15 14 13 13 12 10 9 10 11 12 13 13 12 13 16 19 16 13 14 17 20 23 20 16 14 14 14 14 15 15 12 10 9 8 7 8 8
16 16 17 19 20 20 20 18 17 18 16 13 11 12 13 14 15 13 10 10 13 15 15 13 14 16 19 24 23 17 12 11 11 12 14 13 11 9 7 6 5 6 6
20 20 22 24 26 25 22 20 20 20 19 16 13 12 13 13 13 12 11 11 12 13 15 18 19 19 20 23 24 20 14 9 7 7 8 9 8 7 6 6 5 4 4
21 22 24 28 28 25 20 19 21 20 18 16 14 12 13 13 12 12 12 11 11 12 16 20 21 20 20 22 23 20 14 9 5 3 3 5 5 5 6 7 5 4 3
19 22 27 29 29 24 20 20 21 19 17 16 14 13 13 13 13 12 12 11 11 12 14 18 19 19 21 22 20 17 15 10 4 1 1 3 3 3 5 5 4 4 3
18 23 29 30 28 26 23 21 21 19 17 15 15 15 14 13 13 12 11 12 12 13 14 16 18 20 20 17 15 15 15 11 5 2 2 3 2 1 1 2 2 1 1
21 26 29 29 28 27 24 22 20 19 17 15 15 15 14 14 15 14 13 14 16 17 16 17 19 21 18 14 13 15 14 12 8 5 3 3 2 1 0 0 0 0 0
28 30 32 29 27 26 25 23 21 18 16 14 14 13 13 14 16 16 16 17 17 18 18 18 18 19 18 15 14 14 13 12 10 7 3 1 1 0 0 0 0 0 0
32 34 34 30 25 25 25 25 22 18 15 12 11 12 13 14 16 17 17 17 16 16 17 16 17 18 19 17 14 13 11 10 10 8 4 1 0 0 0 0 0 0 0
34 34 34 30 25 24 25 24 22 19 15 11 10 10 11 12 15 16 16 16 16 17 17 16 16 18 18 17 15 13 11 10 9 9 7 4 2 1 0 0 0 0 0
33 32 31 29 25 22 22 21 20 19 16 13 11 9 9 10 12 14 14 15 15 16 17 16 15 15 17 19 18 15 12 10 11 11 11 9 6 4 2 1 0 0 0
32 31 30 28 25 20 17 17 17 16 16 15 13 10 9 10 12 12 12 12 13 13 15 16 15 15 18 21 21 17 13 11 11 13 14 12 10 9 7 5 3 1 0
34 33 31 28 25 18 12 10 11 12 13 14 14 13 11 11 12 12 11 10 10 12 13 15 16 17 20 22 22 19 16 13 12 14 14 14 13 12 11 9 5 2 1
40 38 34 31 26 18 9 5 6 8 10 12 14 14 12 11 11 13 13 12 11 11 13 16 17 17 18 20 21 21 19 16 15 15 16 16 15 13 11 10 6 2 1
46 44 39 34 29 19 9 4 4 7 10 11 12 12 12 10 11 13 15 15 14 14 15 16 16 16 16 17 19 20 20 17 16 17 17 16 13 11 9 8 6 3 1
49 47 42 36 30 20 10 4 4 7 9 10 9 9 8 8 10 13 15 16 17 18 18 16 16 15 15 15 16 19 20 19 18 17 15 12 10 9 9 9 7 4 1
50 47 43 36 30 21 11 5 5 7 9 8 8 7 5 6 9 13 15 16 16 17 18 16 15 14 14 15 15 17 20 21 19 16 13 10 9 9 9 9 8 5 3

GEFSMA_con_probscp_294.txt.gz
Probability
0 0 0 0 0 0 1 1 1 2 3 3 2 2 3 2 1 1 1 2 5 5 4 4 6 6 7 7 7 8 9 9 10 10 8 5 3 2 1 0 0 0 0
0 0 0 0 0 0 0 0 0 1 1 2 1 1 2 2 3 3 3 3 5 8 7 6 7 8 8 8 8 8 9 10 9 10 8 5 4 4 3 1 1 1 1
0 0 0 0 0 0 0 0 0 0 0 0 0 0 1 2 4 5 5 3 4 8 10 9 10 11 11 11 11 10 9 10 10 9 9 7 6 6 5 4 3 3 3
0 0 0 0 0 0 0 0 0 0 0 0 0 0 0 1 2 3 3 3 2 4 8 11 14 16 15 14 15 14 12 12 12 11 10 9 8 7 6 6 5 5 5
0 0 0 0 0 0 0 0 0 0 0 0 0 0 0 0 0 0 1 2 2 3 5 10 15 18 19 19 19 18 16 15 14 12 11 10 9 7 6 6 5 4 3
0 1 1 0 0 0 0 0 0 0 0 0 0 0 0 0 0 0 0 1 1 2 3 6 10 13 16 20 21 19 16 16 15 12 10 9 7 6 6 4 3 2 1
1 2 2 1 0 0 0 0 0 0 0 0 0 0 0 0 0 0 0 0 0 1 1 3 4 5 8 13 16 16 15 16 15 12 11 10 9 7 6 5 3 2 1
3 3 3 2 1 1 1 0 1 1 1 1 1 1 1 1 0 0 0 0 0 0 0 1 1 0 2 5 8 11 14 15 15 14 13 13 11 10 9 8 6 5 3
4 4 3 4 4 4 3 2 2 3 3 3 3 3 3 2 1 1 0 0 0 0 0 0 0 0 0 1 3 7 11 14 15 16 16 15 13 12 11 10 9 8 6
5 4 4 5 5 5 4 4 3 4 6 6 5 4 5 4 3 3 2 1 1 1 0 0 0 0 0 0 1 4 8 11 14 16 17 16 15 13 11 10 10 10 9
6 6 6 6 6 5 5 5 5 6 8 8 7 6 6 6 6 5 5 4 4 3 1 1 0 0 0 0 0 2 4 7 9 12 14 15 15 14 11 8 8 10 11
6 7 7 7 7 6 6 6 7 8 9 9 9 8 7 7 6 6 6 6 6 4 3 2 1 0 0 0 1 2 3 4 5 6 8 10 13 13 11 7 7 9 11
5 5 7 7 8 8 7 7 8 9 10 10 9 8 7 6 6 6 6 5 5 4 3 2 1 0 1 2 2 3 3 4 3 2 2 5 8 9 9 7 5 7 8
4 4 5 7 9 10 9 8 9 9 9 9 9 8 5 4 5 5 4 3 3 2 1 1 0 0 1 2 3 3 3 4 3 1 0 1 3 4 5 5 5 5 5
3 3 4 6 9 10 8 7 8 8 7 7 6 6 5 4 3 2 1 1 1 1 0 0 0 0 0 1 1 1 2 3 3 1 0 0 0 1 1 3 3 3 3
4 4 5 8 10 9 7 5 5 5 5 4 4 4 4 3 2 1 1 1 1 0 0 0 0 0 0 1 0 0 1 3 3 2 0 0 0 0 0 1 1 1 1
5 5 6 9 10 8 5 2 3 3 3 2 3 4 3 3 3 2 3 3 3 3 2 2 2 2 1 1 0 0 1 3 4 3 1 0 0 0 0 0 0 0 0
7 7 7 9 10 7 3 2 3 4 3 2 3 4 3 3 3 3 4 6 7 7 6 5 4 5 4 2 1 1 1 3 5 4 2 1 0 0 0 0 0 0 0
10 10 10 10 8 5 2 1 2 3 4 4 4 4 3 3 3 4 5 8 9 10 9 8 6 6 5 3 2 1 1 4 6 7 5 3 2 1 0 0 0 0 0
10 11 12 11 7 4 3 2 2 2 4 4 3 3 3 4 5 5 7 9 10 10 10 9 8 7 6 4 3 2 2 5 8 9 8 7 5 2 1 0 0 0 0
9 10 12 11 9 7 5 4 3 3 4 4 3 2 2 4 6 6 8 8 9 9 10 10 9 10 10 8 6 3 4 6 8 9 9 9 7 5 3 1 0 0 0
10 11 12 12 11 10 8 6 5 4 5 4 3 3 3 4 5 6 6 6 6 8 10 11 11 12 13 12 9 7 6 7 8 9 8 7 7 7 6 4 2 0 0
13 12 12 12 12 11 8 5 4 4 5 4 3 3 4 4 4 4 4 4 4 5 7 9 10 12 14 13 11 9 9 9 10 10 8 7 7 7 6 5 3 1 0
16 15 13 12 12 10 7 4 3 4 5 4 2 2 3 2 2 3 3 4 4 4 4 5 7 9 11 12 10 9 10 10 9 7 6 6 6 5 4 4 3 1 0
19 17 14 12 11 10 7 4 3 4 4 3 2 1 2 2 2 3 4 5 5 5 4 5 5 6 7 8 7 7 8 9 7 5 5 5 4 4 3 3 2 1 0
21 18 14 12 11 9 6 4 3 3 3 3 2 2 2 2 2 3 4 5 6 5 5 5 6 4 4 5 5 6 7 8 7 5 4 4 3 3 3 2 1 0 0

GEFSMA_con_probscp_300.txt.gz
Probability
0 0 0 0 0 0 0 0 0 0 0 0 0 0 0 0 0 0 1 2 4 4 4 4 5 5 6 6 7 8 9 8 8 8 7 6 5 5 5 5 6 6 6
0 0 0 0 0 0 0 0 0 0 0 0 0 0 0 0 0 0 1 3 4 5 4 4 5 6 6 6 7 8 9 9 9 9 8 7 6 6 6 7 7 7 7
0 0 0 0 0 0 0 0 0 0 0 0 0 0 1 0 0 1 2 4 5 6 6 6 8 9 9 9 9 10 11 11 10 10 10 9 8 8 8 7 8 8 9
0 0 0 0 0 0 0 0 0 0 0 0 0 0 1 1 0 1 2 4 5 5 6 8 11 12 13 13 13 14 15 14 12 10 9 9 10 11 10 8 7 7 8
0 0 0 0 0 0 0 0 0 0 0 0 0 0 0 1 1 1 2 3 4 4 5 6 9 11 14 16 17 18 18 18 16 13 10 9 11 12 11 8 7 7 7
0 0 0 0 0 0 0 0 0 0 0 0 0 0 0 1 1 2 3 3 3 3 3 4 6 8 11 15 17 18 19 20 19 16 13 12 12 12 11 9 7 7 8
0 0 0 0 0 0 0 0 0 0 0 1 1 1 1 1 1 1 3 5 4 4 4 4 4 5 8 11 13 14 17 20 20 18 15 14 14 13 11 10 9 9 9
0 0 1 1 1 0 0 1 1 1 1 2 3 3 3 2 1 1 2 4 5 5 5 4 3 3 4 6 6 8 12 16 18 17 15 14 14 13 12 11 10 11 11
0 1 2 2 2 1 1 2 3 2 2 3 4 5 6 5 3 2 3 3 4 6 6 5 4 3 3 3 2 4 7 10 13 14 15 15 15 14 13 12 12 13 13
1 1 2 2 2 2 2 2 4 4 4 4 5 6 6 5 5 5 5 4 4 6 6 4 3 3 4 3 2 2 4 6 8 11 12 14 14 15 14 13 14 14 13
0 1 1 1 1 2 2 2 4 5 6 5 4 4 5 4 4 5 6 5 5 6 5 4 3 3 4 3 3 2 3 4 5 6 8 10 12 13 14 14 16 15 12
1 1 2 2 1 2 3 3 4 5 5 4 4 4 4 4 4 4 4 4 3 3 3 3 3 3 3 3 3 3 3 2 1 2 4 7 10 12 12 15 17 15 13
2 3 3 3 3 3 5 4 4 4 4 3 4 4 5 5 5 4 4 3 1 0 1 2 2 2 2 2 2 3 3 1 0 1 2 4 7 9 9 11 14 14 13
3 3 3 3 3 4 4 4 4 4 4 4 4 4 4 5 5 4 4 2 1 0 0 1 1 0 1 1 1 2 2 1 0 0 1 1 2 4 5 6 8 11 11
3 3 3 4 4 4 4 5 5 5 5 5 4 3 2 2 2 2 1 1 0 0 0 0 0 0 0 0 1 2 3 2 0 0 0 0 0 1 2 3 5 7 8
4 4 4 5 6 5 5 5 5 5 5 4 3 2 1 1 0 0 0 0 0 0 1 1 1 2 1 1 2 3 3 2 1 0 0 0 0 0 1 1 3 5 6
5 5 6 7 6 5 4 4 4 4 3 3 3 3 2 1 0 0 0 0 0 1 3 4 4 5 4 3 2 2 2 2 1 1 0 0 0 0 0 0 1 3 3
7 7 8 7 6 4 4 4 4 3 2 2 2 2 2 1 0 1 1 1 1 3 5 6 7 7 6 4 3 1 1 1 1 1 1 0 0 0 0 0 0 1 1
9 9 9 8 7 7 6 6 5 3 1 0 1 1 1 1 1 1 0 1 2 4 6 7 8 9 8 5 4 4 3 2 2 2 1 0 0 0 0 0 0 0 0
9 9 9 9 9 9 9 8 6 3 1 1 1 1 2 2 1 0 0 1 3 5 6 7 8 9 8 7 7 8 8 6 5 3 2 1 1 2 1 1 0 0 0
8 8 8 9 9 11 11 10 7 5 3 3 4 4 4 3 2 0 0 2 3 5 5 5 5 6 7 9 11 12 11 11 9 7 5 4 4 5 4 3 2 0 0
9 8 7 8 9 10 10 9 7 7 7 7 7 7 6 4 2 1 1 2 3 4 4 4 4 5 8 11 13 13 13 13 13 10 8 6 6 6 5 5 3 1 0
11 10 8 8 10 10 7 5 4 7 9 9 9 8 7 5 4 4 3 3 3 3 3 4 5 7 9 11 12 12 12 13 14 12 9 8 7 5 4 3 2 0 0
14 12 10 10 11 9 4 1 1 3 5 6 6 7 7 6 5 4 4 3 3 3 3 3 5 7 8 9 9 9 10 12 13 12 10 9 8 6 3 2 1 0 0
17 15 12 11 10 7 2 0 1 1 1 2 3 5 6 6 4 3 3 3 3 3 3 3 4 5 5 5 5 7 9 11 12 11 9 9 8 5 3 2 1 0 0
18 16 13 11 9 6 2 1 1 1 0 0 2 4 4 4 3 3 3 3 3 3 3 3 3 3 3 3 2 5 9 11 12 11 8 7 6 4 2 2 1 0 0

GEFSMA_con_probscp_306.txt.gz
Probability
0 0 0 0 0 0 0 0 0 0 0 0 0 0 0 0 0 0 3 7 9 8 6 5 4 3 3 4 3 4 6 5 4 5 5 5 4 4 4 4 4 4 3
0 0 0 0 0 0 0 0 0 0 0 0 0 0 0 0 0 0 2 5 8 8 7 6 6 6 7 7 6 6 7 7 6 7 7 7 6 5 4 4 4 3 3
0 0 0 0 0 0 0 0 0 0 0 0 0 0 0 0 0 0 2 4 5 5 7 7 7 9 10 9 8 8 9 10 10 10 9 9 8 7 6 5 4 4 4
0 0 0 0 0 0 0 0 0 0 0 0 0 0 0 0 0 1 3 4 3 3 4 7 8 9 9 8 8 9 11 14 14 12 11 11 10 9 7 6 6 5 5
0 0 0 0 0 0 0 1 1 1 0 0 0 0 1 1 2 2 4 5 4 4 4 6 8 8 7 7 8 10 13 16 17 16 13 13 12 10 8 7 7 8 8
0 0 0 0 0 0 0 1 2 2 1 2 2 2 2 2 3 4 5 5 5 5 5 6 8 8 7 7 8 10 12 14 17 18 16 15 13 12 10 8 7 8 9
0 0 1 2 1 1 1 1 2 2 2 3 4 5 4 4 4 4 4 4 4 4 4 5 7 8 8 7 8 9 9 11 13 17 17 17 15 13 11 10 8 8 8
0 1 2 3 2 2 1 2 2 2 3 4 6 7 6 5 5 5 5 5 5 5 5 5 6 7 8 7 8 8 8 8 10 12 15 16 16 15 12 11 11 10 8
1 2 3 3 3 3 3 3 3 4 4 5 6 7 7 6 6 7 7 7 7 6 6 6 6 7 7 8 8 8 9 8 7 8 9 11 14 14 11 10 11 12 11
0 1 3 4 4 4 4 4 6 8 8 8 8 8 7 7 8 8 7 7 7 7 6 6 6 7 7 8 8 10 10 10 8 7 6 8 10 12 10 9 9 10 11
1 1 3 5 4 4 5 7 9 11 12 11 10 9 8 8 8 7 6 6 7 7 7 7 8 8 9 8 9 10 11 11 8 6 6 6 7 9 10 10 9 9 9
3 3 5 6 5 5 8 11 11 11 12 11 10 9 8 8 7 6 5 5 7 7 6 7 8 10 9 9 10 10 9 7 5 3 4 5 5 6 9 10 10 10 11
5 6 6 6 6 7 10 12 12 11 11 11 10 9 8 7 6 5 5 4 4 5 5 5 6 7 8 9 8 7 5 4 2 1 1 2 2 4 5 6 7 8 9
5 5 6 6 8 10 10 10 11 11 11 11 11 9 7 6 5 4 4 3 3 3 3 3 3 4 7 8 5 4 4 3 2 1 1 0 1 2 2 2 2 2 3
5 5 5 7 10 12 11 9 10 11 11 11 11 10 7 5 4 4 3 3 3 3 3 3 2 4 7 6 4 4 5 5 3 2 1 0 0 1 1 0 0 0 0
6 6 7 9 12 13 12 11 9 10 11 11 12 11 10 7 5 4 4 4 4 4 2 2 4 7 7 6 6 7 7 6 5 3 1 0 0 0 0 0 0 0 0
9 9 9 11 12 13 13 12 10 11 13 13 13 14 14 12 9 8 7 7 7 6 4 4 7 11 11 9 10 10 8 7 7 5 2 0 0 0 0 0 0 0 0
10 10 11 12 13 13 15 15 13 13 15 15 15 16 16 16 16 15 14 13 12 12 10 9 11 14 15 13 13 12 9 8 8 6 3 1 0 0 0 0 0 0 0
10 11 12 12 12 13 15 16 16 16 17 16 16 17 17 17 18 20 20 19 17 17 16 14 14 17 17 15 14 12 11 11 10 8 5 2 0 0 0 0 0 0 0
13 13 14 15 13 12 13 15 15 16 16 16 17 17 17 16 16 18 21 22 22 20 19 18 16 16 17 16 14 12 11 12 13 12 10 7 4 3 2 1 0 0 0
17 17 17 17 15 11 10 11 13 14 15 16 17 17 16 15 13 12 14 17 19 21 21 19 16 15 17 18 16 14 13 13 14 15 14 12 11 10 7 4 1 0 0
23 21 19 18 16 11 6 6 9 12 15 17 18 17 15 14 12 7 5 6 10 15 17 17 15 15 18 20 20 19 18 16 16 16 15 14 15 14 11 6 2 0 0
30 27 23 21 18 13 6 3 6 11 16 19 19 17 15 15 14 10 6 6 7 9 11 13 14 16 19 20 22 23 23 21 19 16 14 14 14 14 11 6 2 0 0
35 32 29 26 22 16 9 3 4 10 15 17 18 16 15 16 16 14 14 15 15 13 10 10 12 14 15 16 19 21 22 21 19 17 15 14 13 12 9 5 1 0 0
35 36 33 29 24 18 11 3 4 10 14 15 14 14 14 16 16 15 18 21 21 18 13 10 10 9 9 9 12 14 16 16 16 15 14 13 12 10 7 3 1 0 0
35 37 34 29 26 21 12 3 4 10 14 13 13 12 12 14 14 14 18 21 21 19 16 12 9 6 6 6 7 9 11 12 12 14 13 12 11 9 5 2 0 0 0

GEFSMA_con_probscp_312.txt.gz
Probability
2 2 3 3 3 5 6 6 6 8 8 8 8 8 7 8 9 10 11 13 15 14 12 12 11 11 10 9 8 7 6 5 4 4 5 5 5 6 6 5 5 5 4
4 4 3 3 3 4 4 5 5 6 8 8 8 7 8 8 9 9 10 13 15 15 15 15 13 12 11 10 8 8 7 6 6 6 7 7 7 6 6 6 6 6 5
6 7 6 5 5 5 5 5 4 4 5 6 5 6 8 9 8 9 11 12 14 16 18 18 17 15 12 11 9 8 7 6 7 8 9 9 8 7 7 6 6 6 6
7 8 9 9 8 8 7 6 5 4 4 3 3 4 7 8 8 8 9 11 13 14 17 19 20 18 15 13 12 11 10 9 9 11 11 10 9 9 7 7 6 6 6
7 8 10 10 9 8 8 7 6 7 7 5 3 3 5 6 6 7 7 9 11 12 14 17 19 18 17 17 16 16 15 14 14 14 13 11 9 9 8 7 7 7 7
7 7 9 10 8 8 9 8 8 9 9 8 6 5 4 5 6 7 7 8 8 10 12 14 16 17 17 18 18 18 18 17 16 16 14 12 9 8 9 8 7 7 7
6 6 8 8 8 8 10 9 9 9 9 9 8 6 5 5 7 8 8 8 7 9 10 13 15 17 17 16 16 17 16 15 15 15 14 13 11 10 10 9 7 7 8
8 8 9 9 9 10 11 11 10 10 9 8 7 7 6 7 6 7 8 9 10 11 12 12 14 16 17 16 15 15 15 15 15 15 15 15 14 13 12 9 7 7 7
13 14 12 11 11 11 11 12 11 10 9 9 7 7 7 7 7 7 7 9 12 13 12 11 13 14 15 16 15 14 16 16 16 15 15 16 15 14 12 10 8 8 7
17 17 16 14 12 9 9 10 10 10 10 9 9 8 8 8 9 8 8 9 11 11 11 11 12 14 14 16 16 16 17 17 16 15 14 14 14 13 11 10 9 9 8
18 17 17 17 13 10 9 9 10 10 10 10 10 10 10 11 11 11 10 10 10 10 10 10 11 13 15 16 19 20 19 17 14 13 13 11 11 11 10 9 9 8 8
17 17 16 17 15 12 12 12 11 10 10 10 10 11 14 14 14 14 13 12 11 11 11 10 11 12 14 17 19 20 18 14 11 10 9 8 7 8 8 8 7 6 6
15 16 16 17 16 13 13 13 12 11 10 10 10 11 15 17 16 16 16 14 12 12 12 12 13 15 17 18 18 17 15 11 8 6 6 6 5 5 6 6 5 4 4
12 15 18 18 17 14 13 14 13 11 11 11 11 12 15 17 15 15 15 14 13 12 12 13 16 18 20 20 17 14 13 11 7 6 6 4 3 3 4 4 3 3 3
11 14 17 19 19 18 16 14 13 12 13 13 12 13 15 16 14 12 12 13 14 13 12 13 15 19 21 19 15 14 14 11 8 6 5 3 2 2 2 1 1 2 2
16 17 18 19 20 20 18 15 11 11 13 14 13 13 15 17 15 14 14 15 16 16 15 14 15 19 21 18 17 17 16 12 9 7 5 2 0 0 0 0 0 1 1
22 21 20 19 19 19 18 14 11 9 11 13 13 13 16 18 18 18 18 18 20 20 20 19 19 22 23 23 23 22 19 14 11 9 6 2 0 0 0 0 0 0 0
26 25 21 19 19 19 18 17 13 9 10 13 14 15 17 18 19 19 19 19 20 21 22 22 23 24 25 26 26 23 19 16 12 9 7 4 1 1 0 0 0 0 0
29 27 23 21 21 21 20 19 14 10 10 12 14 15 16 17 17 17 16 17 18 20 22 23 23 22 23 24 24 22 18 16 14 11 9 7 4 2 1 0 0 0 0
32 30 28 25 23 20 19 18 14 11 9 11 13 14 15 15 14 13 13 14 16 19 23 24 20 17 18 21 24 23 19 18 17 14 12 11 9 6 3 1 0 0 0
31 33 32 29 24 18 14 13 13 12 11 11 13 14 15 13 12 10 10 11 14 19 24 24 18 14 14 18 22 23 21 20 19 18 16 15 13 10 6 3 1 0 0
32 34 35 33 26 18 12 8 10 13 15 14 14 15 14 11 9 8 7 8 10 14 19 20 17 14 14 15 18 20 21 21 20 19 18 17 16 14 9 5 1 0 0
37 37 37 35 30 22 12 6 7 12 15 17 16 15 13 10 8 8 8 8 9 10 12 14 16 16 16 17 17 19 21 21 20 18 17 16 16 14 11 7 3 0 0
42 43 42 40 35 26 14 7 7 10 15 18 17 15 13 11 10 10 11 12 13 12 11 12 15 16 16 17 18 20 21 21 18 17 15 13 13 12 11 8 4 1 0
44 46 45 43 38 28 16 9 8 12 17 19 18 15 13 12 12 12 15 18 18 16 15 14 14 13 12 12 15 19 21 19 17 16 15 13 10 9 9 8 4 1 0
46 47 45 42 38 29 18 10 8 13 19 19 18 14 11 11 11 12 17 20 20 18 17 18 14 11 9 8 10 16 19 18 17 17 16 13 10 8 8 7 4 1 0

GEFSMA_con_probscp_318.txt.gz
Probability
1 1 1 1 0 0 0 1 2 3 3 3 3 3 3 3 3 3 3 4 7 9 9 8 7 7 6 6 7 8 7 7 6 5 4 4 3 2 2 2 1 2 3
3 2 1 0 0 0 1 2 3 3 3 3 3 3 3 3 3 3 3 4 8 11 11 10 8 7 6 7 7 8 9 9 9 7 6 5 3 2 2 2 2 2 2
4 3 1 0 0 0 1 2 2 2 2 2 2 3 3 3 3 3 3 4 7 10 13 12 10 8 7 8 9 9 10 11 11 9 7 5 4 3 2 3 3 3 2
4 3 2 2 1 0 1 1 1 1 2 2 2 2 3 3 3 2 3 4 6 8 10 12 11 10 10 10 11 11 11 12 12 10 7 6 5 5 5 4 3 3 3
3 3 3 3 2 2 2 1 1 2 2 2 2 3 3 2 1 1 1 3 4 6 7 9 10 12 13 13 14 13 12 13 13 11 10 8 8 8 7 6 4 4 4
3 3 3 3 3 4 3 2 2 3 2 3 3 3 3 1 0 0 0 1 2 3 4 5 6 9 12 15 17 17 15 15 14 13 12 11 9 9 9 7 6 6 6
3 3 3 3 4 4 4 4 4 2 1 2 3 3 2 1 0 0 0 0 0 1 2 3 4 5 7 12 17 19 19 17 14 13 12 10 9 9 9 7 6 6 6
3 3 3 3 2 2 3 4 5 4 3 3 3 3 1 0 0 0 0 0 0 0 1 2 3 3 4 7 12 17 19 18 15 13 11 8 7 8 8 7 6 6 5
3 3 3 1 1 0 1 3 5 7 7 5 4 4 2 1 1 2 1 1 1 1 1 2 2 3 4 6 8 11 15 16 15 13 10 7 6 7 7 6 5 5 5
4 3 3 1 0 0 0 3 6 9 9 7 5 4 3 3 3 3 3 2 2 2 2 2 2 3 5 7 7 9 12 14 13 12 10 8 8 8 6 4 3 4 5
5 4 4 3 1 1 2 4 7 9 9 9 7 5 3 3 3 3 3 3 3 3 3 3 2 2 5 8 10 12 13 13 12 11 10 10 11 10 5 2 2 2 3
6 6 5 5 4 3 4 5 6 8 9 8 8 6 4 3 3 3 3 3 3 3 3 3 2 2 4 8 11 14 15 14 12 10 10 10 11 9 5 2 2 2 1
6 6 5 5 5 5 4 4 5 7 6 6 6 6 5 4 3 3 3 3 3 3 3 2 2 1 2 6 10 13 14 14 12 11 10 10 10 8 6 4 3 1 0
6 5 4 4 4 3 3 3 4 5 4 4 4 4 4 5 4 3 3 3 3 2 1 1 1 1 1 3 7 9 11 12 11 10 9 8 7 6 5 5 3 1 0
6 6 6 5 4 3 4 5 5 4 3 3 3 3 4 4 4 3 2 2 2 1 0 0 0 1 1 2 4 6 7 9 9 7 6 4 3 3 3 4 3 1 0
8 8 8 6 4 3 4 6 6 4 3 3 2 2 3 3 3 3 3 3 3 2 1 0 0 0 1 2 2 3 5 6 7 6 3 2 1 1 1 2 2 1 0
9 9 6 4 3 2 3 4 4 3 2 1 1 1 2 3 3 3 3 2 2 2 1 0 0 0 1 2 2 3 4 5 7 6 3 1 1 0 0 1 1 1 1
8 8 4 2 2 1 1 2 3 3 2 1 1 1 2 3 3 3 2 2 2 1 1 1 1 2 3 3 3 3 4 5 7 6 4 2 0 0 0 0 0 0 0
8 8 7 4 2 1 1 2 3 3 3 2 2 3 3 4 4 4 4 4 4 3 3 3 2 4 4 4 3 3 5 7 8 7 4 2 1 0 0 0 0 0 0
10 10 10 8 5 3 3 3 3 3 3 3 3 3 4 5 6 6 6 7 7 6 5 4 4 5 5 4 4 4 5 6 7 5 3 3 2 2 1 0 0 0 0
12 12 11 12 11 9 7 5 4 3 2 3 3 4 6 6 6 6 7 8 8 8 6 4 4 6 6 6 6 5 5 5 4 4 3 3 4 4 3 1 0 0 0
13 12 13 16 18 16 11 7 4 3 3 3 4 6 7 7 7 7 7 7 7 6 6 6 6 6 7 7 8 7 6 5 4 3 3 3 4 5 4 3 1 0 0
12 12 13 17 21 20 15 8 4 3 3 4 5 6 7 7 8 9 8 7 6 5 6 7 7 6 6 7 7 6 6 6 4 3 4 4 5 6 5 3 1 0 0
13 13 12 13 17 18 15 9 5 5 7 7 6 6 6 7 7 8 9 9 8 7 7 7 6 5 4 5 6 5 6 6 5 4 5 6 6 6 5 3 1 0 0
16 14 11 11 13 14 13 8 6 9 12 10 8 7 7 6 7 7 8 9 9 9 9 8 6 4 3 3 4 6 6 6 6 6 6 6 5 4 3 2 0 0 0
17 15 11 10 12 13 11 8 7 10 14 12 9 7 7 6 6 6 7 8 9 9 10 10 7 4 3 2 3 6 7 7 7 6 6 5 4 4 3 1 0 0 0

GEFSMA_con_probscp_324.txt.gz
Probability
0 0 0 0 0 0 0 0 0 0 0 0 0 1 1 1 0 1 2 3 3 3 4 4 4 3 4 3 2 2 2 2 4 5 5 4 3 2 1 1 2 3 4
0 0 0 0 0 0 0 0 0 0 1 1 1 2 2 2 1 0 1 2 2 2 3 3 2 2 2 2 1 2 3 4 5 5 5 5 4 3 2 1 1 3 4
0 0 0 0 0 0 0 0 0 0 1 2 2 2 3 3 1 0 0 1 1 1 1 2 2 1 1 2 3 3 4 6 6 5 5 5 5 4 3 2 1 2 3
0 0 0 0 0 0 0 0 0 0 1 1 1 1 2 2 1 0 0 1 1 1 1 2 3 3 4 6 7 6 6 8 7 5 5 6 5 5 4 3 3 3 3
0 0 0 0 0 0 0 0 0 0 0 0 0 0 1 1 1 0 0 0 1 1 2 2 4 6 8 9 9 8 7 7 6 6 7 7 7 6 5 4 3 3 3
0 0 0 0 0 0 0 0 0 0 0 0 0 0 0 0 0 0 0 0 0 1 1 2 4 6 7 8 9 8 7 7 6 7 7 8 8 8 7 5 4 3 3
0 0 0 0 0 0 0 0 0 0 0 0 0 0 0 0 0 0 0 0 0 0 0 1 1 3 4 5 6 8 8 8 7 8 8 9 8 7 7 5 4 3 4
0 0 0 0 0 0 0 0 0 0 0 0 0 0 0 0 0 0 0 0 0 0 0 0 0 0 1 2 3 5 8 8 8 8 10 11 9 6 5 4 4 4 5
0 0 0 0 0 0 0 0 0 0 1 1 1 1 1 1 1 0 0 1 1 1 0 0 0 0 0 1 1 3 5 7 7 8 11 14 13 8 6 5 4 4 4
0 0 0 0 0 0 0 0 0 1 2 3 2 2 2 2 2 1 1 2 2 2 1 0 0 0 0 0 0 1 3 5 5 7 10 14 15 13 9 5 4 4 5
0 0 0 0 0 0 0 0 0 1 2 3 3 3 3 3 3 3 3 3 3 2 1 0 0 0 0 0 0 1 3 4 6 7 9 11 13 13 10 7 5 6 8
0 0 0 1 1 0 0 0 0 0 1 1 2 3 3 3 2 2 2 2 1 1 0 0 0 0 0 0 1 2 3 5 6 8 8 9 10 10 10 9 9 8 9
0 0 0 2 2 1 0 1 1 1 1 1 1 2 2 1 1 1 1 1 1 0 1 1 0 0 0 0 1 3 4 5 5 6 7 7 7 8 10 12 12 10 9
0 0 0 1 1 1 1 2 2 2 1 1 1 1 1 1 1 1 1 2 2 2 2 2 1 0 0 1 2 3 5 5 5 5 4 5 5 6 8 10 10 9 8
0 0 0 1 1 2 2 2 1 1 1 0 0 0 0 1 2 2 2 2 3 3 3 3 2 0 0 1 2 4 6 7 6 4 3 2 2 3 4 4 4 4 4
2 1 2 2 2 2 2 1 0 0 0 0 0 0 0 1 1 1 1 1 2 2 2 2 1 0 1 1 2 5 7 7 6 4 1 0 0 1 1 1 0 1 1
5 4 4 3 2 3 3 2 0 0 0 0 0 0 0 0 0 0 0 0 1 1 1 1 0 1 2 3 5 7 8 8 6 3 1 0 0 0 0 0 0 0 0
6 6 6 5 4 4 5 4 2 1 1 1 1 0 0 0 0 1 1 1 1 1 2 1 1 2 3 4 7 10 11 9 6 3 1 1 1 1 0 0 0 0 0
5 6 7 7 6 6 6 6 4 3 2 2 2 1 1 1 1 2 2 2 3 4 4 3 2 3 4 5 7 11 12 11 8 5 3 3 3 2 1 0 0 0 0
6 7 9 9 8 8 7 7 5 4 3 3 3 3 4 4 4 4 3 3 4 5 6 5 4 4 4 5 8 11 12 11 10 8 6 5 4 4 3 1 0 0 0
7 8 9 9 9 8 7 7 6 5 4 3 4 5 6 5 5 4 4 3 4 6 8 8 6 5 5 6 9 12 14 13 12 10 8 6 5 5 5 3 1 0 0
6 6 6 7 7 6 5 5 6 7 6 4 4 6 6 6 5 5 5 4 5 6 8 9 8 6 7 9 11 13 15 15 14 12 9 7 6 6 6 4 1 0 0
4 4 4 4 4 4 3 3 3 5 6 6 6 7 7 7 7 7 7 6 6 6 7 9 9 9 9 11 12 13 15 15 14 11 8 7 6 6 6 4 2 0 0
3 3 3 3 4 3 2 1 2 3 7 8 9 9 9 8 8 8 8 8 8 8 8 8 9 9 9 10 11 13 14 13 10 8 7 7 6 6 6 5 3 1 0
4 4 5 6 6 5 2 1 2 5 8 9 10 10 9 7 6 5 6 6 7 7 7 7 8 8 7 7 8 10 12 10 7 6 7 8 7 6 6 6 5 3 2
5 6 7 8 8 6 3 1 3 6 9 10 10 10 8 5 3 2 4 4 5 6 7 7 8 7 6 5 5 8 10 9 7 6 7 8 8 7 6 6 6 5 3

GEFSMA_con_probscp_330.txt.gz
Probability
0 0 0 0 0 0 0 0 0 0 0 0 0 0 0 0 0 0 0 0 0 0 1 2 2 1 1 2 3 3 4 6 6 4 2 2 3 3 3 3 3 3 3
0 0 0 0 0 0 0 0 0 0 0 0 0 0 0 0 0 0 0 0 0 0 0 1 1 0 1 2 3 3 5 6 7 5 3 3 4 4 3 3 3 3 3
0 0 0 0 0 0 0 0 0 0 0 0 0 0 0 0 0 0 1 1 1 1 1 0 0 0 1 3 3 3 4 7 8 8 7 6 6 5 5 5 4 4 4
0 0 0 0 0 0 0 0 0 0 0 0 0 0 0 0 0 0 1 2 2 2 2 1 1 1 2 3 3 3 4 5 7 9 10 9 8 7 7 6 6 6 6
1 0 0 0 0 0 0 0 0 0 0 0 0 0 0 0 0 0 0 1 1 1 3 3 4 4 4 4 3 3 3 4 5 8 9 9 9 8 7 7 7 7 7
2 1 0 0 0 0 0 0 0 0 0 0 0 0 0 0 0 0 0 0 0 1 3 5 7 6 6 6 6 4 4 5 6 7 8 7 8 8 8 8 7 7 8
2 1 0 0 0 1 1 1 0 0 0 0 0 0 0 0 1 1 1 1 1 1 2 4 7 7 7 9 9 7 7 7 8 8 8 7 7 7 7 7 7 7 7
4 3 1 0 0 1 2 1 1 1 0 0 0 0 0 1 2 3 3 2 2 3 2 3 5 6 7 9 9 8 8 8 9 10 10 10 9 7 6 6 5 4 4
4 3 1 0 1 1 2 2 2 2 0 0 1 1 1 3 3 4 5 5 5 5 3 1 2 4 6 7 8 7 8 9 9 11 12 11 10 9 8 8 6 3 2
3 4 4 3 3 3 2 1 1 1 0 1 2 3 4 5 5 5 6 5 5 5 3 1 1 3 5 7 7 6 7 8 8 8 9 10 10 11 12 11 9 6 4
4 4 5 6 5 4 2 1 1 1 1 2 4 5 6 6 6 5 4 3 2 2 2 2 3 4 4 5 5 5 5 5 4 4 6 7 8 11 13 13 12 9 7
3 3 3 5 5 4 4 4 4 3 3 4 5 6 7 7 6 4 2 1 0 0 2 4 6 6 6 5 4 3 3 3 2 2 3 5 6 9 12 14 13 11 11
2 2 2 4 5 6 6 7 8 7 7 7 6 7 7 7 6 5 2 1 0 0 2 4 6 7 8 9 7 4 4 4 3 1 1 2 3 6 10 11 12 12 13
2 4 4 5 7 8 8 9 10 10 11 10 8 7 7 6 6 6 3 1 1 0 1 2 3 5 8 10 8 5 5 6 5 2 0 1 2 3 5 6 8 10 11
5 6 5 6 8 9 9 10 11 12 12 12 10 9 8 6 5 4 2 1 2 1 1 1 1 3 6 7 5 4 5 7 5 2 0 1 1 1 1 2 2 4 5
9 8 7 7 10 12 12 13 14 13 13 14 14 13 11 8 6 5 3 3 3 3 3 2 3 4 7 7 6 6 7 7 6 3 1 0 0 0 0 0 0 0 1
13 12 10 10 12 15 16 17 17 17 16 17 17 15 14 13 11 9 7 7 7 7 6 6 5 7 9 11 12 12 11 10 9 6 3 1 0 0 0 0 0 0 0
15 15 14 15 16 16 18 20 21 20 19 18 17 16 16 16 16 15 13 12 12 10 9 7 7 8 11 14 17 17 15 13 11 8 5 2 0 0 0 0 0 0 0
17 17 18 18 18 18 18 20 22 22 20 17 15 16 17 18 18 18 18 16 15 14 12 9 8 10 13 16 18 18 17 16 12 9 6 3 1 0 0 0 0 0 0
19 19 20 20 18 17 16 18 19 20 18 15 13 14 16 17 17 19 20 21 21 20 17 13 10 11 15 17 17 16 16 17 15 12 10 7 4 2 1 0 0 0 0
18 19 21 21 17 14 13 13 14 15 14 13 12 13 13 13 14 15 17 20 22 22 22 19 15 14 17 20 17 14 15 16 16 16 15 13 9 6 4 3 1 0 0
15 17 19 19 16 13 10 8 9 10 10 10 11 11 10 10 11 11 11 12 14 17 20 22 21 20 22 24 21 17 16 17 17 18 17 16 13 11 10 7 4 1 0
16 17 17 15 15 12 7 4 5 6 7 8 10 11 11 11 12 13 11 9 9 10 14 19 22 23 24 26 25 22 20 19 18 19 17 15 13 13 11 9 4 1 0
19 19 19 17 14 10 5 2 3 5 8 10 13 15 15 15 14 14 12 11 11 9 9 11 15 17 18 21 23 24 22 20 20 19 16 12 12 12 11 9 5 1 0
19 20 20 18 15 11 6 2 4 9 13 16 17 17 16 15 13 12 11 11 10 9 8 7 8 8 9 10 14 19 22 22 20 18 15 12 12 13 12 10 6 2 1
18 18 18 17 15 13 8 3 4 11 17 19 19 18 15 12 10 9 9 9 8 8 7 7 6 4 4 4 7 15 22 23 21 19 16 13 11 13 13 11 7 4 3